Weather reports worldwide

Advertisment
Ramstein, Germany (10614): temperature & dewpoint: 09.08.2020 21:00:00 - 15.08.2020 21:00:00 (CEST)Ramstein, Germany (10614): wind speed & gusts: 09.08.2020 21:00:00 - 15.08.2020 21:00:00 (CEST)Ramstein, Germany (10614): wind direction: 09.08.2020 21:00:00 - 15.08.2020 21:00:00 (CEST)Ramstein, Germany (10614): reduced air pressure: 09.08.2020 21:00:00 - 15.08.2020 21:00:00 (CEST)Ramstein, Germany (10614): visibility: 09.08.2020 21:00:00 - 15.08.2020 21:00:00 (CEST)
Date & Time tt [°C] td [°C] ff [km/h] ff [kn] fx [km/h] fx [kn] dd ppp [hPa] vv [km]
15.08.2020 21:00:00 23,4 17,1 0 0 - - N 1012,9 10
15.08.2020 20:00:00 26,0 17,1 11 6 - - ENE 1012,8 10
15.08.2020 19:00:00 24,9 17,8 5 3 - - NNE 1013,0 10
15.08.2020 18:00:00 25,2 17,9 16 9 - - WSW 1013,1 10
15.08.2020 17:00:00 27,1 16,1 8 4 - - S 1012,9 10
15.08.2020 16:00:00 26,7 16,3 8 4 - - E 1013,2 10
15.08.2020 15:00:00 27,2 15,8 5 3 - - E 1013,5 10
15.08.2020 14:00:00 27,9 16,2 0 0 - - N 1013,8 10
15.08.2020 13:00:00 25,9 16,1 0 0 - - N 1014,2 10
15.08.2020 12:00:00 26,5 16,4 8 4 - - WSW 1014,4 10
15.08.2020 11:00:00 24,0 17,2 13 7 - - WSW 1014,5 10
15.08.2020 10:00:00 23,6 17,6 13 7 - - W 1014,5 10
15.08.2020 09:00:00 21,5 18,1 0 0 - - N 1014,8 10
15.08.2020 08:00:00 19,5 18,7 0 0 - - N 1014,8 10
15.08.2020 07:00:00 16,8 16,8 0 0 - - N 1014,5 10
15.08.2020 06:00:00 15,4 15,4 0 0 - - N 1014,0 10
15.08.2020 05:00:00 16,4 16,4 0 0 - - N 1014,0 10
15.08.2020 04:00:00 16,3 16,3 0 0 - - N 1014,3 10
15.08.2020 03:00:00 18,8 18,5 5 3 - - WSW 1014,2 10
15.08.2020 02:00:00 17,9 17,6 5 3 - - W 1014,7 10
15.08.2020 01:00:00 18,6 17,9 0 0 - - N 1014,7 10
15.08.2020 00:00:00 20,4 17,6 0 0 - - N 1014,6 10
14.08.2020 23:00:00 21,5 17,3 9 5 - - SW 1014,6 10
14.08.2020 22:00:00 22,2 17,1 9 5 - - S 1014,2 10
14.08.2020 21:00:00 23,8 17,0 0 0 - - N 1013,6 10
14.08.2020 20:00:00 25,8 16,3 15 8 - - WSW 1013,1 10
14.08.2020 19:00:00 28,5 16,4 5 3 - - S 1013,0 10
14.08.2020 18:00:00 27,6 16,5 13 7 - - W 1013,1 10
14.08.2020 17:00:00 26,8 17,0 11 6 - - WSW 1013,5 10
14.08.2020 16:00:00 25,6 17,5 9 5 - - WSW 1013,8 10
14.08.2020 15:00:00 24,5 17,0 18 10 - - WSW 1014,2 10
14.08.2020 14:00:00 24,3 17,3 15 8 - - WSW 1014,6 10
14.08.2020 13:00:00 23,0 17,9 16 9 - - WSW 1015,0 10
14.08.2020 12:00:00 24,4 17,1 22 12 - - W 1014,9 10
14.08.2020 11:00:00 22,7 17,6 15 8 - - WSW 1014,9 10
14.08.2020 10:00:00 21,6 16,7 21 11 - - WSW 1014,6 10
14.08.2020 09:00:00 20,4 16,8 13 7 - - WSW 1014,2 10
14.08.2020 08:00:00 20,2 16,6 9 5 - - SW 1014,1 10
14.08.2020 07:00:00 18,7 17,5 8 4 - - WSW 1013,5 10
14.08.2020 06:00:00 18,3 17,6 5 3 - - WSW 1013,2 10
14.08.2020 05:00:00 19,0 17,5 0 0 - - N 1012,9 10
14.08.2020 04:00:00 19,1 17,4 0 0 - - N 1012,9 10
14.08.2020 03:00:00 19,1 17,8 0 0 - - N 1012,9 10
14.08.2020 02:00:00 19,1 17,8 0 0 - - N 1013,5 10
14.08.2020 01:00:00 18,9 17,7 0 0 - - N 1013,5 10
14.08.2020 00:00:00 19,9 17,1 0 0 - - N 1013,5 10
13.08.2020 23:00:00 20,6 16,8 8 4 - - E 1012,8 10
13.08.2020 22:00:00 21,5 16,7 0 0 - - N 1012,9 10
13.08.2020 21:00:00 24,7 16,4 0 0 - - N 1012,4 10
13.08.2020 20:00:00 25,9 16,1 0 0 - - N 1012,9 10
13.08.2020 19:00:00 26,0 15,9 0 0 - - N 1012,9 10
13.08.2020 18:00:00 25,3 16,7 0 0 - - N 1013,7 10
13.08.2020 17:00:00 25,1 17,0 0 0 - - N 1014,0 10
13.08.2020 16:00:00 24,7 16,9 0 0 - - N 1014,3 10
13.08.2020 15:00:00 25,0 16,7 0 0 - - N 1014,3 10
13.08.2020 14:00:00 26,0 15,1 13 7 - - SW 1014,5 10
13.08.2020 13:00:00 26,1 15,7 11 6 - - SSW 1014,2 10
13.08.2020 12:00:00 26,1 16,0 9 5 - - SW 1013,8 10
13.08.2020 11:00:00 24,9 17,3 0 0 - - N 1013,8 10
13.08.2020 10:00:00 21,5 17,9 5 3 - - N 1013,7 10
13.08.2020 09:00:00 20,2 17,9 0 0 - - N 1012,9 10
13.08.2020 08:00:00 18,5 18,0 0 0 - - N 1012,9 10
13.08.2020 07:00:00 18,2 18,2 0 0 - - N 1012,5 10
13.08.2020 06:00:00 17,3 17,3 0 0 - - N 1011,9 10
13.08.2020 05:00:00 17,6 17,6 0 0 - - N 1011,8 10
13.08.2020 04:00:00 17,6 17,6 0 0 - - N 1012,1 10
13.08.2020 03:00:00 17,6 17,3 0 0 - - N 1012,5 10
13.08.2020 02:00:00 19,5 17,3 0 0 - - N 1012,4 10
13.08.2020 01:00:00 18,9 17,0 0 0 - - N 1012,8 10
13.08.2020 00:00:00 19,8 17,7 8 4 - - E 1013,3 10
12.08.2020 23:00:00 21,9 17,5 0 0 - - N 1013,6 10
12.08.2020 22:00:00 20,3 17,5 9 5 - - E 1013,5 10
12.08.2020 21:00:00 23,6 16,9 8 4 - - ENE 1012,8 10
12.08.2020 20:00:00 25,1 16,5 8 4 - - E 1013,2 10
12.08.2020 19:00:00 26,4 16,6 18 10 - - NE 1013,6 10
12.08.2020 18:00:00 32,0 16,3 15 8 - - SW 1012,4 10
12.08.2020 17:00:00 33,4 14,9 21 11 - - S 1012,3 10
12.08.2020 16:00:00 34,9 14,2 16 9 - - SW 1012,2 10
12.08.2020 15:00:00 34,7 14,0 11 6 - - - 1012,1 10
12.08.2020 14:00:00 33,6 15,5 16 9 - - S 1013,0 10
12.08.2020 13:00:00 32,6 17,6 8 4 - - N 1013,8 10
12.08.2020 12:00:00 30,6 18,0 5 3 - - N 1014,2 10
12.08.2020 11:00:00 28,0 17,5 9 5 - - ESE 1014,7 10
12.08.2020 10:00:00 25,9 17,5 13 7 - - E 1014,7 10
12.08.2020 09:00:00 22,7 17,8 0 0 - - N 1015,2 10
12.08.2020 08:00:00 19,7 19,7 0 0 - - N 1014,9 10
12.08.2020 07:00:00 17,2 17,2 0 0 - - N 1014,7 10
12.08.2020 06:00:00 16,4 16,4 5 3 - - ENE 1014,4 10
12.08.2020 05:00:00 17,8 17,8 0 0 - - N 1014,2 10
12.08.2020 04:00:00 17,6 17,6 0 0 - - N 1014,5 10
12.08.2020 03:00:00 19,5 19,5 8 4 - - NNE 1014,5 10
12.08.2020 02:00:00 21,2 18,6 5 3 - - NE 1014,8 10
12.08.2020 01:00:00 20,9 18,8 0 0 - - N 1015,2 10
12.08.2020 00:00:00 21,4 20,0 0 0 - - N 1015,6 10
11.08.2020 23:00:00 20,3 20,3 5 3 - - E 1015,4 10
11.08.2020 22:00:00 21,3 20,6 8 4 - - E 1014,7 10
11.08.2020 21:00:00 22,3 20,0 5 3 - - NE 1014,5 10
11.08.2020 20:00:00 23,5 18,1 8 4 - - ESE 1014,2 10
11.08.2020 19:00:00 24,7 17,9 8 4 50 27 ESE 1014,3 10
11.08.2020 18:00:00 31,9 14,9 18 10 - - W 1013,3 10
11.08.2020 17:00:00 34,8 14,6 16 9 - - E 1012,8 10
11.08.2020 16:00:00 33,9 14,0 8 4 - - NE 1013,3 10
11.08.2020 15:00:00 33,7 15,2 8 4 - - SSE 1013,9 10
11.08.2020 14:00:00 31,9 17,0 0 0 - - N 1014,5 10
11.08.2020 13:00:00 31,0 17,3 0 0 - - N 1015,0 10
11.08.2020 12:00:00 30,4 17,1 5 3 - - SSE 1015,2 10
11.08.2020 11:00:00 28,4 16,9 9 5 - - E 1014,9 10
11.08.2020 10:00:00 26,5 17,3 0 0 - - N 1014,9 10
11.08.2020 09:00:00 23,6 17,3 0 0 - - N 1014,9 10
11.08.2020 08:00:00 19,8 17,4 0 0 - - N 1014,2 10
11.08.2020 07:00:00 17,8 16,8 0 0 - - N 1014,2 10
11.08.2020 06:00:00 17,3 16,3 0 0 - - N 1014,0 10
11.08.2020 05:00:00 16,1 16,1 0 0 - - N 1013,6 10
11.08.2020 04:00:00 17,0 16,0 0 0 - - N 1013,6 10
11.08.2020 03:00:00 17,8 16,6 0 0 - - N 1013,5 10
11.08.2020 02:00:00 19,8 16,4 0 0 - - N 1013,5 10
11.08.2020 01:00:00 19,9 16,7 0 0 - - N 1013,6 10
11.08.2020 00:00:00 22,3 16,8 0 0 - - N 1013,5 10
10.08.2020 23:00:00 23,0 16,0 0 0 - - N 1013,3 10
10.08.2020 22:00:00 24,5 15,9 0 0 - - N 1012,9 10
10.08.2020 21:00:00 28,1 15,7 8 4 - - E 1012,5 10
10.08.2020 20:00:00 31,5 13,7 8 4 - - E 1012,2 10
10.08.2020 19:00:00 33,1 12,7 11 6 - - E 1011,9 10
10.08.2020 18:00:00 33,2 12,7 11 6 - - E 1012,3 10
10.08.2020 17:00:00 34,1 12,4 16 9 - - E 1012,6 10
10.08.2020 16:00:00 33,6 13,1 11 6 - - ESE 1012,9 10
10.08.2020 15:00:00 32,9 14,9 16 9 - - ENE 1013,3 10
10.08.2020 14:00:00 31,5 15,0 5 3 - - ENE 1014,0 10
10.08.2020 13:00:00 30,6 15,0 11 6 - - NE 1014,3 10
10.08.2020 12:00:00 29,1 16,3 13 7 - - NE 1014,3 10
10.08.2020 11:00:00 26,9 15,9 11 6 - - NNE 1014,3 10
10.08.2020 10:00:00 25,1 16,0 8 4 - - NE 1014,6 10
10.08.2020 09:00:00 23,6 15,4 9 5 - - NNE 1014,2 10
10.08.2020 08:00:00 19,5 15,9 8 4 - - E 1014,2 10
10.08.2020 07:00:00 17,5 14,9 0 0 - - N 1014,2 10
10.08.2020 06:00:00 17,1 14,9 5 3 - - ENE 1013,9 10
10.08.2020 05:00:00 16,3 14,5 0 0 - - N 1014,3 10
10.08.2020 04:00:00 15,6 14,3 0 0 - - N 1014,5 10
10.08.2020 03:00:00 17,0 15,0 0 0 - - N 1014,5 10
10.08.2020 02:00:00 18,4 14,9 0 0 - - N 1014,5 10
10.08.2020 01:00:00 18,7 15,2 0 0 - - N 1014,8 10
10.08.2020 00:00:00 21,0 15,5 0 0 - - N 1015,1 10
09.08.2020 23:00:00 23,2 14,5 0 0 - - N 1015,1 10
09.08.2020 22:00:00 25,7 13,8 0 0 - - N 1014,8 10
09.08.2020 21:00:00 28,7 13,0 16 9 - - ENE 1014,5 10

tt = temperature
td = dewpoint
ff = wind speed
fx = gusts
dd = wind direction
ppp = reduced air pressure
vv = visibility

Next stations